This is the latest recevied weather packets stored in our database for station/object JA6CFI-13. If no packets are shown the sender has not sent any weather packets the latest 10 day(s).
| Time | Temp. | Humidity | Pressure | Rain* | Wind** | Luminosity | Snow |
|---|---|---|---|---|---|---|---|
| 1777365728 | 20° C | 78% | 1012.1 hPa | 0 mm | - | - | - |
| 1777365145 | 20° C | 76% | 1011.9 hPa | 0 mm | - | - | - |
| 1777364366 | 20° C | 74% | 1011.9 hPa | 0 mm | - | - | - |
| 1777363586 | 20.56° C | 73% | 1011.7 hPa | 0 mm | - | - | - |
| 1777362805 | 20.56° C | 72% | 1011.6 hPa | 0 mm | - | - | - |
| 1777362128 | 20.56° C | 72% | 1011.7 hPa | 0 mm | - | - | - |
| 1777362025 | 20.56° C | 72% | 1011.6 hPa | 0 mm | - | - | - |
| 1777361245 | 21.11° C | 72% | 1011.6 hPa | 0 mm | - | - | - |
| 1777360466 | 21.11° C | 71% | 1011.5 hPa | 0 mm | - | - | - |
| 1777360328 | 21.11° C | 71% | 1011.4 hPa | 0 mm | - | - | - |
| 1777359686 | 21.11° C | 71% | 1011.5 hPa | 0 mm | - | - | - |
| 1777358905 | 21.67° C | 70% | 1011.4 hPa | 0 mm | - | - | - |
| 1777358529 | 21.67° C | 69% | 1011.4 hPa | 0 mm | - | - | - |
| 1777358124 | 22.22° C | 68% | 1011.5 hPa | 0 mm | - | - | - |
| 1777357346 | 22.78° C | 67% | 1011.5 hPa | 0 mm | - | - | - |
| 1777356727 | 23.33° C | 65% | 1011.6 hPa | 0 mm | - | - | - |
| 1777356565 | 23.33° C | 65% | 1011.6 hPa | 0 mm | - | - | - |
| 1777355785 | 23.89° C | 64% | 1011.7 hPa | 0 mm | - | - | - |
| 1777355005 | 23.89° C | 61% | 1011.7 hPa | 0 mm | - | - | - |
| 1777354226 | 23.89° C | 59% | 1011.7 hPa | 0 mm | - | - | - |
| 1777353446 | 24.44° C | 57% | 1011.8 hPa | 0 mm | - | - | - |
| 1777352665 | 25° C | 54% | 1011.8 hPa | 0 mm | - | - | - |
| 1777351885 | 25.56° C | 52% | 1011.9 hPa | 0 mm | - | - | - |
| 1777351106 | 25° C | 52% | 1012 hPa | 0 mm | - | - | - |
| 1777350325 | 25° C | 52% | 1012.4 hPa | 0 mm | - | - | - |
* Rain latest hour (hover to see other rain measurements)
** Current wind speed in m/s (hover to see current wind gust speed)